STARLINK-2722 (48472 NORAD) Tracking and Keplerian Element Data

This shows tracking and keplerian element data for the satellite.

Feedback or suggestion? Click here.




ElementValue
Catalog48472
NameSTARLINK-2722
Epoch Orbit1320
Epoch Day211.25001157
Epoch Year2021
RAAN188.9846
Inclination53.0373
Eccentricity0.0001555
Argument of Perigee63.6254
Mean Anonmoly179.8955
Mean Motion15.06415724
Decay Rate-0.00107415
L11 48472U 21040AW 21211.25001157 -.00107415 00000-0 -72987-2 0 9995
L22 48472 53.0373 188.9846 0001555 63.6254 179.8955 15.06415724 13209

Live tracking and technical data element details for STARLINK-2722 (NORAD 48472). STARLINK-2722 can be tracked NOW for your location showing map with azimuth and elevation plus other details from your city location.

Track the satellite on the map from your city or location and see movement details for azimuth, elevation, latitude, longitude, range, height, and movement on the map or in text.







IsCatalogInMostPopularTable: catalog: 48472, numindb: 32
Update: records affected: 1



GetName: 48472 STARLINK-2722

Hit Count: updated at: Sat, 31 Jul 2021 16:36:04 GMT